Location: Newark
(42.8481°N, 0.4872°E)
Time: 07:07:25
(UTC+00:00)

Vanguard 3 - Pass Details

Date: 01 November 2020
Orbit: 508 x 3262 km, 33.3° (Epoch: 28 November)

Event Time Altitude Azimuth Distance (km) Brightness Sun altitude
Rises 08:34:04 0° 273° (W) 6,894 11.4 18.2°
Reaches altitude 10° 08:38:35 10° 270° (W) 6,049 11.2 18.9°
Maximum altitude 08:57:25 54° 201° (SSW) 3,607 11.0 21.3°
Drops below altitude 10° 09:13:11 10° 130° (SE) 5,149 13.1 23.2°
Sets 09:16:41 0° 125° (SE) 5,851 12.8 23.6°
